Вернуться в каталог

STARLINK-6379

АктивенСвязьVLEO
NORAD 57343·PAYLOAD·🇺🇸 United States

Запущен Jul 16, 2023 с Cape Canaveral Space Force Station

Loading…

Ближайшие Пролёты (ближайшие 24 часа)

TLE

СвежийSource: CelesTrak SupGP

Эпоха: Sep 15, 2026, 02:09 UTC

1 57343C 23099R   26258.09006944 -.00011347  00000+0 -41101-3 0  2585
2 57343  43.0001 263.0727 0001117 259.5904 299.3621 15.27583511    14

Отслеживайте STARLINK-6379 в реальном времени с AllMySat

Download on the App Store